STARLINK-4546 (53422 NORAD) Tracking and Keplerian Element Data

This shows tracking and keplerian element data for the satellite.

Feedback or suggestion? Click here.




ElementValue
Catalog53422
NameSTARLINK-4546
Epoch Orbit1632
Epoch Day325.15599025
Epoch Year2022
RAAN121.4779
Inclination53.2204
Eccentricity0.0002114
Argument of Perigee48.0791
Mean Anonmoly312.0381
Mean Motion15.08841836
Decay Rate1.495E-05
L11 53422U 22097AL 22325.15599025 .00001495 00000+0 11200-3 0 9991
L22 53422 53.2204 121.4779 0002114 48.0791 312.0381 15.08841836 16326



Live tracking and technical data element details for STARLINK-4546 (NORAD 53422). STARLINK-4546 can be tracked NOW for your location showing map with azimuth and elevation plus other details from your city location.







IsCatalogInMostPopularTable: catalog: 53422, numindb: 6
Update: records affected: 1



GetName: 53422 STARLINK-4546

Hit Count: updated at: Thu, 08 Dec 2022 20:34:25 GMT